Вернуться в каталог

ARIANE 5 DEB

SYLDA

АктивенHEO
NORAD 41594·DEBRIS·🇫🇷 France

Запущен Jun 18, 2016 с Guiana Space Centre

Loading…

Ближайшие Пролёты (ближайшие 24 часа)

TLE

СвежийSource: Space-Track

Эпоха: Sep 14, 2026, 05:36 UTC

1 41594U 16039D   26257.23357853  .00000936  00000-0  86044-3 0  9993
2 41594   5.9478 198.0467 5694570 217.7890  83.8614  4.39170305120479

Отслеживайте ARIANE 5 DEB в реальном времени с AllMySat

Download on the App Store